Estació municipal de Susqueda - Veïnat del Coll (La Selva, )

Consulta les dades en temps real de l'estació municipal de Susqueda - Veïnat del Coll





Hora UTC 05:45
Temperatura 5.7 ºC
Humitat 97.0 %
Pressió 1011.1 hPa
Pluja 0.0 mm
Velocitat vent 2.2 km/h
Direcció vent WNW
Radiació solar 175.9 W/m²

Dades diàries 2026-05-06



Hora UTC (hivern +1h; estiu +2h)
Temperatura (ºC) Humitat (%) Pressió (hPa) Velocitat vent (km/h) Precipitació (mm) Radiació solar (W/m²)
Hora UTC Aire Humitat Pressió Vel. Dir. Vel. Max Dir. Intent. màx 5 min. Rad. Sol.
00:05 6.7 87.1 1011.1 3.8 NNE 3.8 WNW 0.0 0.1
00:10 6.7 88.0 1011.1 1.9 N 10.2 NE 0.0 0.1
00:15 6.7 89.1 1011.0 2.9 W 10.6 NNE 0.0 0.1
00:20 6.6 89.9 1011.0 4.4 S 16.2 SE 0.0 0.1
00:25 6.9 89.2 1010.8 3.7 SSW 10.9 S 0.0 0.1
00:30 6.8 89.6 1010.8 3.2 SSW 9.9 E 0.0 0.1
00:35 6.9 89.3 1010.7 3.3 SSW 10.9 S 0.0 0.1
00:40 7.0 88.9 1010.7 3.5 SSW 16.6 W 0.0 0.1
00:45 7.0 89.0 1010.7 4.8 WSW 12.4 S 0.0 0.1
00:50 7.0 88.4 1010.7 4.6 WSW 15.9 WNW 0.0 0.1
00:55 6.9 88.0 1010.7 4.9 WSW 12.7 WSW 0.0 0.1
01:00 6.8 88.1 1010.7 4.5 WSW 13.8 W 0.0 0.1
01:05 6.7 88.6 1010.6 2.6 SW 6.7 NW 0.0 0.1
01:10 6.6 89.3 1010.6 3.0 SW 9.9 S 0.0 0.1
01:15 6.4 90.2 1010.6 2.6 SSW 7.1 SSW 0.0 0.1
01:20 6.4 90.7 1010.6 2.5 WSW 10.6 WSW 0.0 0.1
01:25 6.4 90.9 1010.4 4.5 WSW 13.1 WNW 0.0 0.1
01:30 6.4 91.0 1010.4 2.9 SW 12.4 NW 0.0 0.1
01:35 6.3 91.6 1010.4 4.5 SW 14.8 S 0.0 0.1
01:40 6.3 92.1 1010.4 4.4 WSW 13.8 W 0.0 0.1
01:45 6.2 92.5 1010.5 4.0 WSW 14.1 SSW 0.0 0.1
01:50 6.2 93.0 1010.5 5.1 SW 23.3 WNW 0.0 0.1
01:55 6.2 93.2 1010.4 5.6 SW 16.6 SSW 0.0 0.1
02:00 6.2 93.2 1010.4 4.2 SW 12.0 SW 0.0 0.1
02:05 6.2 93.2 1010.4 3.6 SW 12.7 W 0.0 0.1
02:10 6.1 93.2 1010.4 4.7 WSW 17.6 WNW 0.0 0.1
02:15 6.0 93.4 1010.4 4.6 SW 14.1 WSW 0.0 0.1
02:20 6.0 93.7 1010.4 4.5 SW 12.4 WSW 0.0 0.1
02:25 6.0 93.8 1010.4 3.5 SSW 9.5 SW 0.0 0.1
02:30 5.9 93.6 1010.4 4.0 SW 10.9 WSW 0.0 0.1
02:35 5.9 93.9 1010.5 5.1 SW 15.9 SW 0.0 0.1
02:40 5.8 94.1 1010.5 4.6 SW 15.2 W 0.0 0.1
02:45 5.8 94.6 1010.5 5.0 SW 22.9 W 0.0 0.1
02:50 5.8 94.8 1010.5 4.4 SW 15.9 SSW 0.0 0.1
02:55 5.8 94.9 1010.5 4.5 WSW 13.1 SW 0.0 0.1
03:00 5.8 95.1 1010.5 4.9 SW 16.6 W 0.0 0.1
03:05 5.8 95.3 1010.5 4.7 WSW 16.2 WSW 0.0 0.1
03:10 5.7 95.3 1010.5 3.5 SW 9.2 W 0.0 0.1
03:15 5.6 95.4 1010.6 2.9 SSW 9.2 SSW 0.0 0.1
03:20 5.6 95.8 1010.6 4.3 WSW 10.9 SSW 0.0 0.1
03:25 5.6 95.9 1010.6 4.6 WSW 12.0 WNW 0.0 0.1
03:30 5.6 95.8 1010.6 2.9 SW 10.2 SSW 0.0 0.1
03:35 5.5 95.8 1010.5 3.9 SW 10.6 WNW 0.0 0.1
03:40 5.6 95.8 1010.5 4.0 SW 12.4 W 0.0 0.1
03:45 5.6 95.7 1010.5 2.5 SSW 5.6 SSW 0.0 0.1
03:50 5.7 95.6 1010.5 3.2 SSW 12.7 S 0.0 0.1
03:55 5.7 95.3 1010.5 1.1 ESE 3.5 E 0.0 0.1
04:00 5.7 95.5 1010.5 1.1 SW 3.9 SW 0.0 0.1
04:05 5.7 95.7 1010.5 1.6 SSW 4.9 S 0.0 0.1
04:10 5.6 95.7 1010.5 1.7 SW 7.1 S 0.0 0.1
04:15 5.6 95.8 1010.5 3.1 WSW 12.4 WSW 0.0 0.1
04:20 5.5 96.0 1010.5 4.6 WSW 15.2 WNW 0.0 0.3
04:25 5.5 96.2 1010.5 5.9 WSW 18.7 W 0.0 0.9
04:30 5.6 96.2 1010.5 4.2 WSW 19.4 SSW 0.0 1.5
04:35 5.6 96.2 1010.5 6.1 W 15.2 SSW 0.0 1.9
04:40 5.5 96.3 1010.5 5.0 WSW 21.5 W 0.0 2.9
04:45 5.5 96.5 1010.5 5.0 W 14.1 NNW 0.0 5.3
04:50 5.4 96.7 1010.5 5.2 W 15.9 WSW 0.0 13.9
04:55 5.4 96.9 1010.6 4.8 WSW 13.8 S 0.0 29.9
05:00 5.3 97.0 1010.6 5.2 SW 16.9 NW 0.0 30.1
05:05 5.3 97.2 1010.6 4.5 WSW 15.2 WSW 0.0 53.5
05:10 5.3 97.4 1010.6 6.0 W 12.4 WSW 0.0 85.7
05:15 5.3 97.4 1010.7 3.5 SW 9.2 WNW 0.0 62.3
05:20 5.2 97.6 1010.7 5.1 W 20.1 WSW 0.0 118.3
05:25 5.3 97.9 1010.8 5.1 W 21.5 WNW 0.0 122.8
05:30 5.4 97.7 1010.8 4.9 W 11.3 NW 0.0 116.5
05:35 5.5 97.7 1011.0 3.5 W 12.0 SW 0.0 99.8
05:40 5.6 97.5 1011.0 2.8 SSW 12.0 SW 0.0 111.3
05:45 5.7 97.0 1011.1 2.2 WNW 9.5 NW 0.0 175.9
Màxima 7.0 97.9 1011.1 6.1 W 23.3 WNW 0.0 175.9
Mínima 5.2 87.1 1010.4
Total 0.0